N440WF 35ME-KTEB

Flight info

Callsign N440WF
Flight time 2h 44m
Altitude 12000
Route ENE T295 SASHA STUBY PWL V405
Aircraft C185/L-G/S

Departure

Time 2026-05-05 10:21
Airport Matinicus Island Airport (35ME)

Arrival

Time 2026-05-05 13:05
Airport Teterboro Airport (KTEB)
Time Latitude Longitude Altitude Speed Heading
2026-05-05 10:19 43.86942 -68.89257 57 ft 0 kts 340°
2026-05-05 10:20 43.86949 -68.89261 57 ft 12 kts 335°
2026-05-05 10:20 43.87224 -68.89400 38 ft 65 kts 351°
2026-05-05 10:21 43.87747 -68.89623 222 ft 85 kts 336°
2026-05-05 10:21 43.88322 -68.89930 488 ft 95 kts 320°
2026-05-05 10:21 43.88952 -68.90444 696 ft 114 kts 322°
2026-05-05 10:21 43.89557 -68.91250 819 ft 125 kts 288°
2026-05-05 10:22 43.89599 -68.92430 976 ft 125 kts 246°
2026-05-05 10:22 43.89064 -68.93340 1203 ft 122 kts 221°
2026-05-05 10:22 43.88713 -68.93946 1352 ft 123 kts 239°
2026-05-05 10:22 43.88361 -68.95455 1650 ft 124 kts 251°
2026-05-05 10:23 43.88138 -68.96606 1876 ft 122 kts 250°
2026-05-05 10:23 43.87981 -68.97349 2033 ft 118 kts 249°
2026-05-05 10:23 43.87742 -68.98383 2248 ft 108 kts 248°
2026-05-05 10:23 43.87426 -68.99632 2527 ft 100 kts 247°
2026-05-05 10:24 43.87194 -69.00517 2754 ft 95 kts 247°
2026-05-05 10:24 43.87042 -69.01083 2913 ft 94 kts 248°
2026-05-05 10:24 43.86821 -69.01912 3144 ft 89 kts 248°
2026-05-05 10:24 43.86609 -69.02704 3365 ft 85 kts 248°
2026-05-05 10:25 43.86405 -69.03464 3585 ft 83 kts 249°
2026-05-05 10:25 43.86207 -69.04201 3809 ft 81 kts 249°
2026-05-05 10:25 43.86012 -69.04926 4035 ft 80 kts 249°
2026-05-05 10:25 43.85817 -69.05641 4261 ft 78 kts 249°
2026-05-05 10:26 43.85624 -69.06349 4495 ft 78 kts 247°
2026-05-05 10:26 43.85432 -69.07045 4720 ft 77 kts 247°
2026-05-05 10:26 43.85247 -69.07736 4948 ft 76 kts 247°
2026-05-05 10:26 43.85065 -69.08419 5183 ft 75 kts 248°
2026-05-05 10:27 43.84885 -69.09093 5406 ft 74 kts 247°
2026-05-05 10:27 43.84702 -69.09769 5600 ft 79 kts 248°
2026-05-05 10:27 43.84497 -69.10527 5775 ft 88 kts 247°
2026-05-05 10:27 43.84275 -69.11350 5948 ft 94 kts 247°
2026-05-05 10:28 43.84041 -69.12217 6121 ft 97 kts 247°
2026-05-05 10:28 43.83803 -69.13102 6292 ft 99 kts 247°
2026-05-05 10:28 43.83565 -69.13988 6463 ft 99 kts 248°
2026-05-05 10:28 43.83324 -69.14888 6637 ft 100 kts 248°
2026-05-05 10:29 43.83080 -69.15796 6815 ft 101 kts 248°
2026-05-05 10:29 43.82832 -69.16714 6994 ft 102 kts 248°
2026-05-05 10:29 43.82584 -69.17633 7170 ft 101 kts 248°
2026-05-05 10:29 43.82337 -69.18546 7344 ft 101 kts 248°
2026-05-05 10:30 43.82092 -69.19451 7510 ft 101 kts 248°
2026-05-05 10:30 43.81845 -69.20367 7687 ft 101 kts 248°
2026-05-05 10:30 43.81599 -69.21271 7864 ft 100 kts 248°
2026-05-05 10:30 43.81353 -69.22174 8038 ft 100 kts 248°
2026-05-05 10:31 43.81107 -69.23078 8217 ft 100 kts 248°
2026-05-05 10:31 43.80864 -69.23978 8392 ft 100 kts 248°
2026-05-05 10:31 43.80623 -69.24867 8562 ft 99 kts 248°
2026-05-05 10:31 43.80385 -69.25748 8743 ft 96 kts 248°
2026-05-05 10:32 43.80152 -69.26611 8917 ft 94 kts 248°
2026-05-05 10:32 43.79921 -69.27454 9088 ft 93 kts 248°
2026-05-05 10:32 43.79697 -69.28278 9265 ft 92 kts 248°
2026-05-05 10:32 43.79474 -69.29101 9441 ft 91 kts 248°
2026-05-05 10:33 43.79253 -69.29916 9605 ft 90 kts 249°
2026-05-05 10:33 43.79036 -69.30718 9796 ft 89 kts 249°
2026-05-05 10:33 43.78818 -69.31519 9969 ft 89 kts 249°
2026-05-05 10:33 43.78601 -69.32317 10145 ft 88 kts 249°
2026-05-05 10:34 43.78387 -69.33109 10321 ft 86 kts 249°
2026-05-05 10:34 43.78176 -69.33876 10494 ft 86 kts 249°
2026-05-05 10:34 43.77962 -69.34661 10634 ft 88 kts 249°
2026-05-05 10:34 43.77744 -69.35464 10761 ft 90 kts 249°
2026-05-05 10:35 43.77519 -69.36287 10889 ft 92 kts 249°
2026-05-05 10:35 43.77295 -69.37109 11012 ft 93 kts 249°
2026-05-05 10:35 43.77067 -69.37947 11139 ft 93 kts 249°
2026-05-05 10:35 43.76837 -69.38792 11263 ft 94 kts 249°
2026-05-05 10:36 43.76605 -69.39642 11388 ft 94 kts 250°
2026-05-05 10:36 43.76376 -69.40483 11511 ft 95 kts 250°
2026-05-05 10:36 43.76144 -69.41336 11636 ft 94 kts 250°
2026-05-05 10:36 43.75911 -69.42188 11761 ft 94 kts 249°
2026-05-05 10:37 43.75676 -69.43042 11888 ft 94 kts 249°
2026-05-05 10:37 43.75441 -69.43895 12013 ft 95 kts 250°
2026-05-05 10:37 43.75207 -69.44754 12139 ft 95 kts 250°
2026-05-05 10:37 43.74974 -69.45609 12265 ft 95 kts 250°
2026-05-05 10:38 43.74741 -69.46462 12390 ft 94 kts 250°
2026-05-05 10:38 43.74511 -69.47303 12475 ft 97 kts 250°
2026-05-05 10:38 43.74264 -69.48212 12489 ft 104 kts 250°
2026-05-05 10:38 43.74001 -69.49172 12496 ft 109 kts 250°
2026-05-05 10:39 43.73728 -69.50168 12499 ft 112 kts 250°
2026-05-05 10:39 43.73450 -69.51186 12499 ft 114 kts 250°
2026-05-05 10:39 43.73172 -69.52200 12499 ft 115 kts 250°
2026-05-05 10:39 43.72886 -69.53244 12498 ft 117 kts 250°
2026-05-05 10:40 43.72597 -69.54296 12498 ft 117 kts 250°
2026-05-05 10:40 43.72309 -69.55345 12499 ft 116 kts 250°
2026-05-05 10:40 43.72022 -69.56393 12499 ft 116 kts 250°
2026-05-05 10:40 43.71735 -69.57438 12499 ft 116 kts 250°
2026-05-05 10:41 43.71447 -69.58487 12499 ft 116 kts 250°
2026-05-05 10:41 43.71162 -69.59526 12500 ft 116 kts 250°
2026-05-05 10:41 43.70875 -69.60571 12500 ft 116 kts 250°
2026-05-05 10:41 43.70588 -69.61616 12500 ft 116 kts 250°
2026-05-05 10:42 43.70013 -69.63696 12500 ft 116 kts 250°
2026-05-05 10:42 43.69725 -69.64740 12500 ft 116 kts 250°
2026-05-05 10:42 43.69437 -69.65792 12500 ft 117 kts 250°
2026-05-05 10:43 43.69147 -69.66843 12499 ft 116 kts 250°
2026-05-05 10:43 43.68858 -69.67890 12499 ft 116 kts 250°
2026-05-05 10:43 43.68574 -69.68922 12500 ft 116 kts 250°
2026-05-05 10:43 43.68285 -69.69968 12500 ft 116 kts 250°
2026-05-05 10:44 43.67994 -69.71020 12496 ft 117 kts 250°
2026-05-05 10:44 43.67704 -69.72067 12493 ft 117 kts 249°
2026-05-05 10:44 43.67414 -69.73114 12496 ft 116 kts 249°
2026-05-05 10:44 43.67128 -69.74146 12498 ft 116 kts 249°
2026-05-05 10:45 43.66840 -69.75188 12499 ft 116 kts 250°
2026-05-05 10:45 43.66552 -69.76231 12500 ft 116 kts 250°
2026-05-05 10:45 43.66262 -69.77279 12500 ft 116 kts 250°
2026-05-05 10:45 43.65977 -69.78308 12500 ft 116 kts 249°
2026-05-05 10:46 43.65687 -69.79346 12500 ft 116 kts 249°
2026-05-05 10:46 43.65398 -69.80389 12500 ft 116 kts 249°
2026-05-05 10:46 43.65109 -69.81428 12500 ft 116 kts 249°
2026-05-05 10:46 43.64820 -69.82468 12500 ft 116 kts 249°
2026-05-05 10:47 43.64531 -69.83513 12503 ft 116 kts 250°
2026-05-05 10:47 43.64243 -69.84552 12506 ft 116 kts 249°
2026-05-05 10:47 43.63957 -69.85580 12508 ft 116 kts 249°
2026-05-05 10:47 43.63666 -69.86625 12507 ft 116 kts 249°
2026-05-05 10:48 43.63377 -69.87665 12508 ft 116 kts 249°
2026-05-05 10:48 43.63088 -69.88706 12505 ft 116 kts 249°
2026-05-05 10:48 43.62801 -69.89738 12503 ft 116 kts 249°
2026-05-05 10:48 43.62510 -69.90781 12501 ft 117 kts 249°
2026-05-05 10:49 43.62218 -69.91829 12501 ft 116 kts 249°
2026-05-05 10:49 43.61928 -69.92870 12500 ft 116 kts 249°
2026-05-05 10:49 43.61636 -69.93917 12500 ft 117 kts 249°
2026-05-05 10:49 43.61349 -69.94951 12500 ft 117 kts 249°
2026-05-05 10:50 43.61057 -69.95996 12495 ft 117 kts 249°
2026-05-05 10:50 43.60764 -69.97045 12493 ft 117 kts 249°
2026-05-05 10:50 43.60472 -69.98095 12491 ft 117 kts 249°
2026-05-05 10:50 43.60178 -69.99145 12491 ft 117 kts 249°
2026-05-05 10:51 43.59884 -70.00191 12491 ft 117 kts 249°
2026-05-05 10:51 43.59596 -70.01219 12491 ft 116 kts 249°
2026-05-05 10:51 43.59304 -70.02259 12491 ft 116 kts 249°
2026-05-05 10:51 43.59013 -70.03302 12490 ft 116 kts 249°
2026-05-05 10:52 43.58721 -70.04346 12490 ft 116 kts 249°
2026-05-05 10:52 43.58429 -70.05387 12491 ft 116 kts 249°
2026-05-05 10:52 43.58137 -70.06428 12491 ft 116 kts 249°
2026-05-05 10:52 43.57850 -70.07455 12492 ft 116 kts 249°
2026-05-05 10:53 43.57559 -70.08493 12497 ft 116 kts 249°
2026-05-05 10:53 43.57268 -70.09528 12498 ft 116 kts 249°
2026-05-05 10:53 43.56977 -70.10567 12499 ft 116 kts 249°
2026-05-05 10:53 43.56686 -70.11604 12500 ft 116 kts 249°
2026-05-05 10:54 43.56395 -70.12641 12500 ft 116 kts 249°
2026-05-05 10:54 43.56107 -70.13667 12500 ft 116 kts 249°
2026-05-05 10:54 43.55814 -70.14706 12500 ft 116 kts 249°
2026-05-05 10:54 43.55522 -70.15742 12498 ft 116 kts 249°
2026-05-05 10:55 43.55229 -70.16785 12494 ft 116 kts 249°
2026-05-05 10:55 43.54937 -70.17822 12492 ft 116 kts 249°
2026-05-05 10:55 43.54646 -70.18858 12491 ft 116 kts 249°
2026-05-05 10:55 43.54352 -70.19901 12491 ft 116 kts 249°
2026-05-05 10:56 43.54058 -70.20944 12491 ft 117 kts 249°
2026-05-05 10:56 43.53767 -70.21975 12491 ft 116 kts 249°
2026-05-05 10:56 43.53473 -70.23015 12491 ft 116 kts 249°
2026-05-05 10:56 43.53180 -70.24052 12491 ft 116 kts 249°
2026-05-05 10:57 43.52887 -70.25091 12490 ft 116 kts 249°
2026-05-05 10:57 43.52593 -70.26130 12491 ft 115 kts 249°
2026-05-05 10:57 43.52305 -70.27151 12491 ft 115 kts 249°
2026-05-05 10:57 43.52014 -70.28179 12490 ft 115 kts 249°
2026-05-05 10:58 43.51722 -70.29211 12491 ft 115 kts 249°
2026-05-05 10:58 43.51432 -70.30241 12491 ft 115 kts 249°
2026-05-05 10:58 43.51144 -70.31254 12491 ft 115 kts 249°
2026-05-05 10:58 43.50853 -70.32279 12491 ft 115 kts 249°
2026-05-05 10:59 43.50563 -70.33303 12490 ft 115 kts 249°
2026-05-05 10:59 43.50273 -70.34328 12490 ft 115 kts 249°
2026-05-05 10:59 43.49982 -70.35355 12491 ft 115 kts 249°
2026-05-05 10:59 43.49693 -70.36374 12490 ft 114 kts 248°
2026-05-05 11:00 43.49403 -70.37395 12491 ft 114 kts 249°
2026-05-05 11:00 43.49114 -70.38417 12491 ft 115 kts 248°
2026-05-05 11:00 43.48825 -70.39434 12492 ft 115 kts 248°
2026-05-05 11:00 43.48533 -70.40461 12490 ft 115 kts 248°
2026-05-05 11:01 43.48242 -70.41486 12492 ft 115 kts 248°
2026-05-05 11:01 43.47950 -70.42514 12491 ft 115 kts 249°
2026-05-05 11:01 43.47661 -70.43530 12490 ft 115 kts 248°
2026-05-05 11:01 43.47368 -70.44559 12490 ft 115 kts 248°
2026-05-05 11:02 43.47076 -70.45585 12490 ft 115 kts 248°
2026-05-05 11:02 43.46783 -70.46612 12492 ft 115 kts 248°
2026-05-05 11:02 43.46490 -70.47645 12495 ft 116 kts 248°
2026-05-05 11:02 43.46195 -70.48680 12497 ft 116 kts 248°
2026-05-05 11:03 43.45902 -70.49700 12499 ft 116 kts 248°
2026-05-05 11:03 43.45606 -70.50733 12498 ft 116 kts 248°
2026-05-05 11:03 43.45308 -70.51768 12499 ft 116 kts 248°
2026-05-05 11:03 43.45013 -70.52799 12501 ft 116 kts 248°
2026-05-05 11:04 43.44719 -70.53836 12500 ft 116 kts 249°
2026-05-05 11:04 43.44429 -70.54855 12499 ft 116 kts 248°
2026-05-05 11:04 43.44135 -70.55886 12499 ft 116 kts 248°
2026-05-05 11:04 43.43840 -70.56915 12499 ft 116 kts 248°
2026-05-05 11:05 43.43545 -70.57943 12499 ft 115 kts 248°
2026-05-05 11:05 43.43253 -70.58972 12502 ft 115 kts 248°
2026-05-05 11:05 43.42960 -70.59997 12498 ft 115 kts 248°
2026-05-05 11:05 43.42669 -70.61020 12498 ft 114 kts 248°
2026-05-05 11:06 43.42421 -70.62051 12501 ft 115 kts 252°
2026-05-05 11:06 43.42198 -70.63118 12501 ft 116 kts 252°
2026-05-05 11:06 43.41975 -70.64187 12502 ft 116 kts 252°
2026-05-05 11:06 43.41752 -70.65255 12500 ft 116 kts 252°
2026-05-05 11:07 43.41529 -70.66324 12500 ft 116 kts 252°
2026-05-05 11:07 43.41309 -70.67377 12501 ft 116 kts 252°
2026-05-05 11:07 43.41086 -70.68439 12500 ft 115 kts 252°
2026-05-05 11:07 43.40862 -70.69500 12500 ft 115 kts 252°
2026-05-05 11:08 43.40640 -70.70560 12500 ft 115 kts 252°
2026-05-05 11:08 43.40417 -70.71618 12502 ft 115 kts 252°
2026-05-05 11:08 43.40196 -70.72675 12499 ft 115 kts 252°
2026-05-05 11:08 43.39975 -70.73722 12501 ft 115 kts 252°
2026-05-05 11:09 43.39752 -70.74783 12499 ft 115 kts 252°
2026-05-05 11:09 43.39529 -70.75843 12498 ft 115 kts 252°
2026-05-05 11:09 43.39306 -70.76898 12496 ft 114 kts 252°
2026-05-05 11:09 43.39088 -70.77933 12497 ft 113 kts 252°
2026-05-05 11:10 43.38870 -70.78975 12502 ft 114 kts 252°
2026-05-05 11:10 43.38723 -70.79674 12506 ft 114 kts 252°
2026-05-05 11:10 43.38424 -70.81091 12504 ft 117 kts 252°
2026-05-05 11:10 43.38198 -70.82166 12499 ft 117 kts 252°
2026-05-05 11:11 43.37975 -70.83222 12492 ft 116 kts 252°
2026-05-05 11:11 43.37749 -70.84292 12493 ft 116 kts 252°
2026-05-05 11:11 43.37522 -70.85358 12490 ft 116 kts 252°
2026-05-05 11:11 43.37297 -70.86420 12489 ft 116 kts 252°
2026-05-05 11:12 43.37072 -70.87479 12489 ft 115 kts 252°
2026-05-05 11:12 43.36924 -70.88180 12491 ft 115 kts 252°
2026-05-05 11:12 43.36700 -70.89233 12490 ft 114 kts 252°
2026-05-05 11:12 43.36479 -70.90280 12490 ft 114 kts 252°
2026-05-05 11:13 43.36257 -70.91334 12489 ft 115 kts 252°
2026-05-05 11:13 43.36034 -70.92393 12486 ft 115 kts 252°
2026-05-05 11:13 43.35809 -70.93451 12481 ft 115 kts 252°
2026-05-05 11:13 43.35590 -70.94490 12479 ft 114 kts 252°
2026-05-05 11:14 43.35368 -70.95540 12482 ft 114 kts 252°
2026-05-05 11:14 43.35146 -70.96590 12486 ft 115 kts 252°
2026-05-05 11:14 43.34919 -70.97645 12481 ft 115 kts 252°
2026-05-05 11:14 43.34694 -70.98698 12480 ft 115 kts 252°
2026-05-05 11:15 43.34471 -70.99740 12480 ft 115 kts 252°
2026-05-05 11:15 43.34248 -71.00792 12482 ft 115 kts 252°
2026-05-05 11:15 43.34024 -71.01848 12481 ft 115 kts 252°
2026-05-05 11:15 43.33800 -71.02900 12480 ft 114 kts 252°
2026-05-05 11:16 43.33577 -71.03947 12481 ft 114 kts 252°
2026-05-05 11:16 43.33353 -71.04996 12482 ft 115 kts 252°
2026-05-05 11:16 43.33128 -71.06048 12483 ft 115 kts 252°
2026-05-05 11:16 43.32904 -71.07098 12483 ft 115 kts 252°
2026-05-05 11:17 43.32681 -71.08140 12485 ft 115 kts 252°
2026-05-05 11:17 43.32455 -71.09195 12477 ft 115 kts 252°
2026-05-05 11:17 43.32230 -71.10249 12477 ft 115 kts 252°
2026-05-05 11:17 43.32005 -71.11304 12481 ft 115 kts 252°
2026-05-05 11:18 43.31779 -71.12363 12484 ft 115 kts 252°
2026-05-05 11:18 43.31551 -71.13421 12485 ft 116 kts 252°
2026-05-05 11:18 43.31323 -71.14482 12486 ft 116 kts 251°
2026-05-05 11:18 43.31098 -71.15535 12483 ft 116 kts 251°
2026-05-05 11:19 43.30870 -71.16596 12477 ft 116 kts 251°
2026-05-05 11:19 43.30643 -71.17645 12481 ft 114 kts 251°
2026-05-05 11:19 43.30417 -71.18698 12485 ft 115 kts 251°
2026-05-05 11:19 43.30192 -71.19758 12479 ft 115 kts 252°
2026-05-05 11:20 43.29969 -71.20804 12476 ft 114 kts 251°
2026-05-05 11:20 43.29743 -71.21847 12481 ft 114 kts 251°
2026-05-05 11:20 43.29517 -71.22893 12486 ft 114 kts 251°
2026-05-05 11:20 43.29287 -71.23947 12483 ft 115 kts 251°
2026-05-05 11:21 43.29061 -71.24993 12481 ft 113 kts 251°
2026-05-05 11:21 43.28836 -71.26019 12484 ft 113 kts 251°
2026-05-05 11:21 43.28610 -71.27062 12480 ft 114 kts 251°
2026-05-05 11:21 43.28387 -71.28103 12474 ft 113 kts 251°
2026-05-05 11:22 43.28168 -71.29128 12486 ft 111 kts 251°
2026-05-05 11:22 43.27946 -71.30145 12487 ft 111 kts 251°
2026-05-05 11:22 43.27721 -71.31164 12481 ft 111 kts 251°
2026-05-05 11:22 43.27504 -71.32175 12483 ft 110 kts 251°
2026-05-05 11:23 43.27286 -71.33186 12484 ft 110 kts 251°
2026-05-05 11:23 43.27072 -71.34185 12482 ft 110 kts 251°
2026-05-05 11:23 43.26854 -71.35198 12490 ft 111 kts 251°
2026-05-05 11:23 43.26634 -71.36215 12492 ft 112 kts 251°
2026-05-05 11:24 43.26412 -71.37232 12490 ft 112 kts 251°
2026-05-05 11:24 43.26188 -71.38265 12490 ft 113 kts 251°
2026-05-05 11:24 43.25970 -71.39298 12488 ft 112 kts 251°
2026-05-05 11:24 43.25750 -71.40324 12487 ft 112 kts 251°
2026-05-05 11:25 43.25527 -71.41348 12491 ft 112 kts 251°
2026-05-05 11:25 43.25304 -71.42362 12493 ft 113 kts 251°
2026-05-05 11:25 43.25078 -71.43397 12492 ft 113 kts 251°
2026-05-05 11:25 43.24852 -71.44433 12493 ft 114 kts 251°
2026-05-05 11:26 43.24624 -71.45475 12491 ft 114 kts 251°
2026-05-05 11:26 43.24399 -71.46508 12490 ft 114 kts 251°
2026-05-05 11:26 43.24173 -71.47548 12487 ft 114 kts 251°
2026-05-05 11:26 43.23945 -71.48590 12488 ft 113 kts 251°
2026-05-05 11:27 43.23719 -71.49625 12493 ft 113 kts 251°
2026-05-05 11:27 43.23492 -71.50662 12489 ft 113 kts 251°
2026-05-05 11:27 43.23265 -71.51697 12492 ft 113 kts 251°
2026-05-05 11:27 43.23040 -71.52723 12494 ft 114 kts 250°
2026-05-05 11:28 43.22811 -71.53765 12492 ft 114 kts 250°
2026-05-05 11:28 43.22586 -71.54803 12490 ft 113 kts 250°
2026-05-05 11:28 43.22360 -71.55839 12489 ft 113 kts 250°
2026-05-05 11:28 43.22136 -71.56867 12485 ft 112 kts 251°
2026-05-05 11:29 43.21822 -71.57837 12491 ft 112 kts 234°
2026-05-05 11:29 43.21329 -71.58651 12493 ft 112 kts 232°
2026-05-05 11:29 43.20835 -71.59486 12491 ft 113 kts 233°
2026-05-05 11:29 43.20349 -71.60328 12493 ft 112 kts 233°
2026-05-05 11:30 43.19861 -71.61166 12493 ft 113 kts 233°
2026-05-05 11:30 43.19370 -71.62003 12486 ft 113 kts 233°
2026-05-05 11:30 43.18879 -71.62838 12490 ft 112 kts 233°
2026-05-05 11:30 43.18387 -71.63676 12495 ft 113 kts 233°
2026-05-05 11:31 43.17894 -71.64515 12491 ft 113 kts 233°
2026-05-05 11:31 43.17408 -71.65341 12494 ft 113 kts 233°
2026-05-05 11:31 43.16915 -71.66179 12489 ft 113 kts 233°
2026-05-05 11:31 43.16422 -71.67022 12488 ft 112 kts 233°
2026-05-05 11:32 43.15936 -71.67848 12492 ft 112 kts 233°
2026-05-05 11:32 43.15445 -71.68681 12491 ft 112 kts 233°
2026-05-05 11:32 43.14953 -71.69517 12494 ft 113 kts 233°
2026-05-05 11:32 43.14458 -71.70355 12494 ft 113 kts 233°
2026-05-05 11:33 43.13961 -71.71199 12490 ft 114 kts 233°
2026-05-05 11:33 43.13472 -71.72028 12490 ft 113 kts 233°
2026-05-05 11:33 43.12978 -71.72865 12487 ft 112 kts 233°
2026-05-05 11:33 43.12485 -71.73699 12493 ft 113 kts 233°
2026-05-05 11:34 43.11992 -71.74535 12493 ft 113 kts 233°
2026-05-05 11:34 43.11496 -71.75375 12491 ft 113 kts 233°
2026-05-05 11:34 43.11001 -71.76212 12489 ft 113 kts 233°
2026-05-05 11:34 43.10506 -71.77048 12488 ft 112 kts 233°
2026-05-05 11:35 43.10013 -71.77880 12493 ft 112 kts 233°
2026-05-05 11:35 43.09525 -71.78706 12493 ft 113 kts 233°
2026-05-05 11:35 43.09031 -71.79543 12490 ft 113 kts 233°
2026-05-05 11:35 43.08534 -71.80385 12492 ft 113 kts 233°
2026-05-05 11:36 43.08047 -71.81213 12488 ft 113 kts 233°
2026-05-05 11:36 43.07555 -71.82046 12488 ft 112 kts 233°
2026-05-05 11:36 43.07065 -71.82876 12489 ft 112 kts 233°
2026-05-05 11:36 43.06574 -71.83707 12493 ft 113 kts 233°
2026-05-05 11:37 43.06078 -71.84547 12496 ft 113 kts 233°
2026-05-05 11:37 43.05587 -71.85374 12496 ft 113 kts 233°
2026-05-05 11:37 43.05089 -71.86212 12496 ft 113 kts 233°
2026-05-05 11:37 43.04597 -71.87041 12496 ft 112 kts 233°
2026-05-05 11:38 43.04103 -71.87874 12506 ft 113 kts 233°
2026-05-05 11:38 43.03608 -71.88709 12501 ft 113 kts 233°
2026-05-05 11:38 43.03118 -71.89534 12501 ft 113 kts 233°
2026-05-05 11:38 43.02625 -71.90370 12496 ft 113 kts 233°
2026-05-05 11:39 43.02131 -71.91206 12497 ft 112 kts 233°
2026-05-05 11:39 43.01638 -71.92035 12505 ft 113 kts 233°
2026-05-05 11:39 43.01140 -71.92872 12501 ft 113 kts 233°
2026-05-05 11:39 43.00652 -71.93697 12489 ft 112 kts 233°
2026-05-05 11:40 43.00162 -71.94522 12494 ft 111 kts 233°
2026-05-05 11:40 42.99673 -71.95340 12503 ft 111 kts 233°
2026-05-05 11:40 42.99180 -71.96169 12503 ft 112 kts 233°
2026-05-05 11:40 42.98693 -71.96987 12501 ft 112 kts 233°
2026-05-05 11:41 42.98195 -71.97828 12501 ft 112 kts 233°
2026-05-05 11:41 42.97709 -71.98646 12500 ft 112 kts 233°
2026-05-05 11:41 42.97220 -71.99469 12501 ft 111 kts 233°
2026-05-05 11:41 42.96732 -72.00287 12504 ft 111 kts 233°
2026-05-05 11:42 42.96249 -72.01101 12506 ft 109 kts 234°
2026-05-05 11:42 42.95769 -72.01907 12509 ft 109 kts 233°
2026-05-05 11:42 42.95287 -72.02717 12512 ft 110 kts 233°
2026-05-05 11:42 42.94807 -72.03518 12516 ft 111 kts 233°
2026-05-05 11:43 42.94320 -72.04333 12507 ft 111 kts 233°
2026-05-05 11:43 42.93833 -72.05148 12510 ft 111 kts 234°
2026-05-05 11:43 42.93349 -72.05961 12506 ft 110 kts 234°
2026-05-05 11:43 42.92864 -72.06774 12508 ft 110 kts 234°
2026-05-05 11:44 42.92382 -72.07584 12507 ft 110 kts 234°
2026-05-05 11:44 42.91870 -72.08454 12097 ft 134 kts 233°
2026-05-05 11:44 42.91244 -72.09519 11355 ft 150 kts 233°
2026-05-05 11:44 42.90606 -72.10586 10607 ft 141 kts 232°
2026-05-05 11:45 42.89997 -72.11597 9850 ft 136 kts 232°
2026-05-05 11:45 42.89406 -72.12580 9092 ft 132 kts 232°
2026-05-05 11:45 42.88828 -72.13539 8345 ft 130 kts 232°
2026-05-05 11:45 42.88259 -72.14485 7590 ft 128 kts 232°
2026-05-05 11:46 42.87710 -72.15399 7008 ft 120 kts 232°
2026-05-05 11:46 42.87179 -72.16288 6736 ft 127 kts 232°
2026-05-05 11:46 42.86606 -72.17255 6616 ft 130 kts 232°
2026-05-05 11:46 42.86043 -72.18199 6562 ft 126 kts 232°
2026-05-05 11:47 42.85496 -72.19115 6530 ft 123 kts 232°
2026-05-05 11:47 42.84966 -72.20008 6512 ft 119 kts 233°
2026-05-05 11:47 42.84452 -72.20866 6506 ft 118 kts 232°
2026-05-05 11:47 42.83932 -72.21730 6503 ft 117 kts 232°
2026-05-05 11:48 42.82908 -72.23435 6512 ft 118 kts 232°
2026-05-05 11:48 42.82388 -72.24305 6508 ft 118 kts 232°
2026-05-05 11:48 42.81863 -72.25179 6513 ft 120 kts 232°
2026-05-05 11:49 42.81330 -72.26063 6503 ft 121 kts 232°
2026-05-05 11:49 42.80798 -72.26947 6497 ft 120 kts 232°
2026-05-05 11:49 42.80274 -72.27825 6485 ft 118 kts 232°
2026-05-05 11:49 42.79759 -72.28686 6478 ft 116 kts 230°
2026-05-05 11:50 42.79224 -72.29501 6502 ft 116 kts 227°
2026-05-05 11:50 42.78640 -72.30267 6500 ft 116 kts 226°
2026-05-05 11:50 42.78059 -72.31013 6502 ft 117 kts 226°
2026-05-05 11:50 42.77469 -72.31795 6511 ft 119 kts 227°
2026-05-05 11:51 42.76871 -72.32591 6494 ft 120 kts 226°
2026-05-05 11:51 42.76271 -72.33376 6503 ft 120 kts 226°
2026-05-05 11:51 42.75680 -72.34154 6492 ft 119 kts 227°
2026-05-05 11:51 42.75095 -72.34935 6501 ft 116 kts 227°
2026-05-05 11:52 42.74516 -72.35711 6517 ft 118 kts 227°
2026-05-05 11:52 42.73926 -72.36493 6505 ft 118 kts 226°
2026-05-05 11:52 42.73331 -72.37275 6500 ft 119 kts 226°
2026-05-05 11:52 42.72740 -72.38052 6501 ft 117 kts 226°
2026-05-05 11:53 42.72153 -72.38825 6513 ft 118 kts 227°
2026-05-05 11:53 42.71569 -72.39599 6513 ft 118 kts 227°
2026-05-05 11:53 42.70973 -72.40383 6515 ft 119 kts 227°
2026-05-05 11:53 42.70374 -72.41170 6518 ft 121 kts 227°
2026-05-05 11:54 42.69774 -72.41961 6515 ft 122 kts 227°
2026-05-05 11:54 42.69165 -72.42762 6514 ft 122 kts 226°
2026-05-05 11:54 42.68557 -72.43562 6508 ft 121 kts 227°
2026-05-05 11:54 42.67949 -72.44357 6506 ft 121 kts 227°
2026-05-05 11:55 42.67346 -72.45147 6507 ft 120 kts 227°
2026-05-05 11:55 42.66744 -72.45938 6510 ft 121 kts 227°
2026-05-05 11:55 42.66145 -72.46727 6516 ft 121 kts 227°
2026-05-05 11:55 42.65537 -72.47524 6507 ft 121 kts 226°
2026-05-05 11:56 42.64933 -72.48315 6501 ft 120 kts 226°
2026-05-05 11:56 42.64335 -72.49099 6499 ft 119 kts 226°
2026-05-05 11:56 42.63739 -72.49879 6502 ft 119 kts 227°
2026-05-05 11:56 42.63143 -72.50661 6497 ft 119 kts 227°
2026-05-05 11:57 42.62552 -72.51442 6502 ft 119 kts 228°
2026-05-05 11:57 42.61960 -72.52228 6494 ft 119 kts 228°
2026-05-05 11:57 42.61364 -72.53011 6509 ft 120 kts 226°
2026-05-05 11:57 42.60762 -72.53799 6506 ft 121 kts 226°
2026-05-05 11:58 42.60163 -72.54578 6496 ft 120 kts 226°
2026-05-05 11:58 42.59562 -72.55363 6493 ft 119 kts 226°
2026-05-05 11:58 42.58962 -72.56148 6499 ft 119 kts 227°
2026-05-05 11:58 42.58366 -72.56929 6499 ft 119 kts 227°
2026-05-05 11:59 42.57780 -72.57698 6501 ft 118 kts 227°
2026-05-05 11:59 42.57188 -72.58474 6503 ft 118 kts 227°
2026-05-05 11:59 42.56595 -72.59249 6503 ft 118 kts 227°
2026-05-05 11:59 42.56003 -72.60023 6503 ft 118 kts 227°
2026-05-05 12:00 42.55611 -72.60538 6502 ft 119 kts 227°
2026-05-05 12:00 42.55015 -72.61318 6502 ft 119 kts 227°
2026-05-05 12:00 42.54222 -72.62351 6497 ft 119 kts 227°
2026-05-05 12:00 42.53821 -72.62875 6497 ft 118 kts 227°
2026-05-05 12:01 42.53240 -72.63635 6493 ft 117 kts 227°
2026-05-05 12:01 42.52658 -72.64405 6502 ft 117 kts 227°
2026-05-05 12:01 42.52079 -72.65164 6492 ft 115 kts 228°
2026-05-05 12:01 42.51498 -72.65924 6506 ft 117 kts 227°
2026-05-05 12:02 42.50906 -72.66699 6503 ft 119 kts 227°
2026-05-05 12:02 42.50308 -72.67475 6492 ft 119 kts 227°
2026-05-05 12:02 42.49710 -72.68251 6488 ft 118 kts 227°
2026-05-05 12:02 42.49121 -72.69016 6490 ft 116 kts 227°
2026-05-05 12:03 42.48535 -72.69775 6501 ft 117 kts 227°
2026-05-05 12:03 42.47959 -72.70528 6482 ft 116 kts 227°
2026-05-05 12:03 42.47388 -72.71271 6467 ft 111 kts 226°
2026-05-05 12:03 42.46828 -72.72000 6491 ft 112 kts 226°
2026-05-05 12:04 42.46262 -72.72738 6500 ft 113 kts 226°
2026-05-05 12:04 42.45686 -72.73488 6511 ft 116 kts 226°
2026-05-05 12:04 42.45109 -72.74243 6504 ft 117 kts 226°
2026-05-05 12:04 42.44527 -72.75007 6505 ft 117 kts 227°
2026-05-05 12:05 42.43946 -72.75762 6472 ft 113 kts 227°
2026-05-05 12:05 42.43389 -72.76496 6491 ft 111 kts 226°
2026-05-05 12:05 42.42823 -72.77223 6505 ft 113 kts 226°
2026-05-05 12:05 42.42261 -72.77953 6500 ft 114 kts 226°
2026-05-05 12:06 42.41686 -72.78702 6498 ft 114 kts 226°
2026-05-05 12:06 42.41111 -72.79450 6505 ft 114 kts 226°
2026-05-05 12:06 42.40536 -72.80190 6502 ft 114 kts 226°
2026-05-05 12:06 42.39962 -72.80937 6492 ft 114 kts 226°
2026-05-05 12:07 42.39391 -72.81678 6503 ft 113 kts 226°
2026-05-05 12:07 42.38820 -72.82418 6499 ft 113 kts 225°
2026-05-05 12:07 42.38262 -72.83134 6503 ft 112 kts 225°
2026-05-05 12:07 42.37699 -72.83862 6508 ft 112 kts 226°
2026-05-05 12:08 42.37129 -72.84601 6510 ft 114 kts 226°
2026-05-05 12:08 42.36554 -72.85349 6513 ft 115 kts 226°
2026-05-05 12:08 42.35977 -72.86101 6519 ft 117 kts 226°
2026-05-05 12:08 42.35383 -72.86874 6561 ft 119 kts 224°
2026-05-05 12:09 42.34775 -72.87649 6540 ft 120 kts 226°
2026-05-05 12:09 42.34169 -72.88438 6523 ft 121 kts 226°
2026-05-05 12:09 42.33572 -72.89225 6489 ft 117 kts 226°
2026-05-05 12:09 42.32990 -72.89993 6504 ft 116 kts 226°
2026-05-05 12:10 42.32410 -72.90739 6511 ft 117 kts 225°
2026-05-05 12:10 42.31817 -72.91501 6530 ft 118 kts 225°
2026-05-05 12:10 42.31215 -72.92270 6514 ft 119 kts 224°
2026-05-05 12:10 42.30624 -72.93033 6486 ft 116 kts 225°
2026-05-05 12:11 42.30044 -72.93786 6488 ft 115 kts 226°
2026-05-05 12:11 42.29462 -72.94540 6496 ft 116 kts 226°
2026-05-05 12:11 42.28889 -72.95280 6503 ft 116 kts 226°
2026-05-05 12:11 42.28292 -72.96046 6515 ft 120 kts 225°
2026-05-05 12:12 42.27683 -72.96821 6517 ft 121 kts 225°
2026-05-05 12:12 42.27068 -72.97595 6498 ft 120 kts 225°
2026-05-05 12:12 42.26455 -72.98362 6498 ft 119 kts 225°
2026-05-05 12:12 42.25862 -72.99106 6491 ft 117 kts 225°
2026-05-05 12:13 42.25262 -72.99856 6497 ft 117 kts 225°
2026-05-05 12:13 42.24664 -73.00603 6471 ft 115 kts 226°
2026-05-05 12:13 42.24085 -73.01333 6509 ft 116 kts 226°
2026-05-05 12:13 42.23490 -73.02084 6510 ft 118 kts 226°
2026-05-05 12:14 42.22887 -73.02843 6508 ft 119 kts 226°
2026-05-05 12:14 42.22280 -73.03608 6505 ft 119 kts 225°
2026-05-05 12:14 42.21676 -73.04368 6498 ft 119 kts 225°
2026-05-05 12:14 42.21073 -73.05125 6490 ft 118 kts 225°
2026-05-05 12:15 42.20485 -73.05864 6492 ft 116 kts 226°
2026-05-05 12:15 42.19893 -73.06612 6499 ft 117 kts 226°
2026-05-05 12:15 42.19290 -73.07372 6501 ft 118 kts 226°
2026-05-05 12:15 42.18696 -73.08120 6506 ft 119 kts 226°
2026-05-05 12:16 42.18093 -73.08881 6493 ft 118 kts 226°
2026-05-05 12:16 42.17499 -73.09630 6493 ft 116 kts 225°
2026-05-05 12:16 42.16907 -73.10369 6488 ft 115 kts 225°
2026-05-05 12:16 42.16320 -73.11099 6498 ft 114 kts 226°
2026-05-05 12:17 42.15732 -73.11835 6512 ft 116 kts 225°
2026-05-05 12:17 42.15145 -73.12569 6486 ft 116 kts 225°
2026-05-05 12:17 42.14558 -73.13302 6496 ft 115 kts 226°
2026-05-05 12:17 42.13977 -73.14040 6511 ft 115 kts 226°
2026-05-05 12:18 42.13389 -73.14783 6512 ft 117 kts 226°
2026-05-05 12:18 42.12793 -73.15536 6503 ft 117 kts 225°
2026-05-05 12:18 42.12201 -73.16278 6490 ft 115 kts 226°
2026-05-05 12:18 42.11631 -73.16996 6489 ft 112 kts 226°
2026-05-05 12:19 42.11060 -73.17711 6494 ft 112 kts 226°
2026-05-05 12:19 42.10478 -73.18438 6507 ft 114 kts 225°
2026-05-05 12:19 42.09903 -73.19155 6508 ft 114 kts 226°
2026-05-05 12:19 42.09317 -73.19887 6514 ft 115 kts 226°
2026-05-05 12:20 42.08729 -73.20621 6514 ft 115 kts 226°
2026-05-05 12:20 42.08140 -73.21359 6515 ft 115 kts 226°
2026-05-05 12:20 42.07559 -73.22088 6505 ft 115 kts 226°
2026-05-05 12:20 42.06976 -73.22823 6506 ft 114 kts 226°
2026-05-05 12:21 42.06390 -73.23559 6518 ft 116 kts 226°
2026-05-05 12:21 42.05800 -73.24301 6523 ft 117 kts 226°
2026-05-05 12:21 42.05196 -73.25058 6521 ft 119 kts 226°
2026-05-05 12:21 42.04590 -73.25813 6499 ft 118 kts 226°
2026-05-05 12:22 42.03987 -73.26560 6506 ft 117 kts 226°
2026-05-05 12:22 42.03398 -73.27296 6494 ft 116 kts 225°
2026-05-05 12:22 42.02813 -73.28036 6510 ft 116 kts 226°
2026-05-05 12:22 42.02221 -73.28776 6515 ft 117 kts 226°
2026-05-05 12:23 42.01622 -73.29523 6506 ft 118 kts 226°
2026-05-05 12:23 42.01016 -73.30279 6506 ft 119 kts 226°
2026-05-05 12:23 42.00419 -73.31025 6414 ft 111 kts 225°
2026-05-05 12:23 41.99904 -73.31693 6417 ft 103 kts 226°
2026-05-05 12:24 41.99364 -73.32365 6475 ft 109 kts 224°
2026-05-05 12:24 41.98783 -73.33069 6502 ft 115 kts 225°
2026-05-05 12:24 41.98189 -73.33803 6501 ft 117 kts 226°
2026-05-05 12:24 41.97589 -73.34552 6497 ft 118 kts 226°
2026-05-05 12:25 41.96989 -73.35301 6499 ft 117 kts 226°
2026-05-05 12:25 41.96390 -73.36049 6501 ft 118 kts 225°
2026-05-05 12:25 41.95788 -73.36800 6516 ft 118 kts 225°
2026-05-05 12:25 41.95183 -73.37554 6511 ft 119 kts 226°
2026-05-05 12:26 41.94586 -73.38299 6520 ft 119 kts 226°
2026-05-05 12:26 41.93973 -73.39067 6532 ft 121 kts 226°
2026-05-05 12:26 41.93354 -73.39840 6506 ft 120 kts 226°
2026-05-05 12:26 41.92740 -73.40603 6515 ft 121 kts 226°
2026-05-05 12:27 41.92125 -73.41366 6515 ft 120 kts 226°
2026-05-05 12:27 41.91512 -73.42128 6513 ft 120 kts 227°
2026-05-05 12:27 41.90900 -73.42887 6514 ft 122 kts 226°
2026-05-05 12:27 41.90279 -73.43659 6505 ft 121 kts 226°
2026-05-05 12:28 41.89662 -73.44427 6508 ft 121 kts 226°
2026-05-05 12:28 41.89045 -73.45193 6504 ft 120 kts 226°
2026-05-05 12:28 41.88440 -73.45941 6507 ft 119 kts 226°
2026-05-05 12:28 41.87825 -73.46699 6510 ft 120 kts 226°
2026-05-05 12:29 41.87208 -73.47461 6507 ft 120 kts 226°
2026-05-05 12:29 41.86592 -73.48222 6504 ft 120 kts 226°
2026-05-05 12:29 41.85978 -73.48980 6504 ft 119 kts 225°
2026-05-05 12:29 41.85375 -73.49723 6500 ft 119 kts 226°
2026-05-05 12:30 41.84766 -73.50474 6510 ft 119 kts 225°
2026-05-05 12:30 41.84155 -73.51230 6509 ft 120 kts 225°
2026-05-05 12:30 41.83543 -73.51986 6507 ft 119 kts 225°
2026-05-05 12:30 41.82932 -73.52739 6500 ft 119 kts 222°
2026-05-05 12:31 41.82324 -73.53493 6500 ft 118 kts 225°
2026-05-05 12:31 41.81731 -73.54226 6518 ft 118 kts 226°
2026-05-05 12:31 41.81124 -73.54972 6511 ft 118 kts 226°
2026-05-05 12:31 41.80513 -73.55717 6526 ft 120 kts 226°
2026-05-05 12:32 41.79896 -73.56474 6499 ft 119 kts 227°
2026-05-05 12:32 41.79290 -73.57221 6504 ft 118 kts 226°
2026-05-05 12:32 41.78682 -73.57973 6508 ft 118 kts 226°
2026-05-05 12:32 41.78081 -73.58713 6503 ft 117 kts 226°
2026-05-05 12:33 41.77485 -73.59448 6507 ft 119 kts 226°
2026-05-05 12:33 41.76842 -73.60142 6504 ft 120 kts 215°
2026-05-05 12:33 41.76067 -73.60603 6520 ft 123 kts 211°
2026-05-05 12:33 41.75284 -73.61064 6500 ft 123 kts 213°
2026-05-05 12:34 41.74509 -73.61524 6505 ft 122 kts 211°
2026-05-05 12:34 41.73741 -73.61976 6505 ft 121 kts 211°
2026-05-05 12:34 41.72971 -73.62437 6520 ft 122 kts 211°
2026-05-05 12:34 41.72192 -73.62906 6512 ft 122 kts 211°
2026-05-05 12:35 41.71415 -73.63372 6508 ft 122 kts 211°
2026-05-05 12:35 41.70645 -73.63829 6501 ft 120 kts 211°
2026-05-05 12:35 41.69897 -73.64275 6507 ft 119 kts 211°
2026-05-05 12:35 41.69138 -73.64727 6516 ft 120 kts 211°
2026-05-05 12:36 41.68369 -73.65183 6510 ft 121 kts 211°
2026-05-05 12:36 41.67595 -73.65639 6518 ft 122 kts 211°
2026-05-05 12:36 41.66816 -73.66103 6509 ft 122 kts 211°
2026-05-05 12:36 41.66041 -73.66564 6516 ft 123 kts 210°
2026-05-05 12:37 41.65251 -73.67023 6512 ft 124 kts 210°
2026-05-05 12:37 41.64458 -73.67489 6519 ft 125 kts 211°
2026-05-05 12:37 41.63666 -73.67967 6512 ft 125 kts 211°
2026-05-05 12:37 41.62882 -73.68435 6503 ft 124 kts 211°
2026-05-05 12:38 41.62095 -73.68900 6500 ft 123 kts 210°
2026-05-05 12:38 41.61314 -73.69357 6509 ft 122 kts 210°
2026-05-05 12:38 41.60536 -73.69816 6508 ft 122 kts 211°
2026-05-05 12:38 41.59759 -73.70268 6507 ft 122 kts 208°
2026-05-05 12:39 41.58878 -73.70327 6508 ft 136 kts 180°
2026-05-05 12:39 41.57965 -73.70003 6508 ft 138 kts 176°
2026-05-05 12:39 41.57044 -73.69631 6511 ft 139 kts 175°
2026-05-05 12:39 41.56118 -73.69246 6512 ft 139 kts 175°
2026-05-05 12:40 41.55195 -73.68863 6507 ft 139 kts 174°
2026-05-05 12:40 41.54266 -73.68483 6516 ft 139 kts 175°
2026-05-05 12:40 41.53349 -73.68114 6508 ft 139 kts 176°
2026-05-05 12:40 41.52422 -73.67741 6504 ft 138 kts 176°
2026-05-05 12:41 41.51507 -73.67375 6508 ft 137 kts 176°
2026-05-05 12:41 41.50597 -73.67013 6513 ft 136 kts 176°
2026-05-05 12:41 41.49700 -73.66660 6520 ft 136 kts 176°
2026-05-05 12:41 41.48788 -73.66302 6522 ft 136 kts 176°
2026-05-05 12:42 41.47874 -73.65944 6526 ft 137 kts 175°
2026-05-05 12:42 41.46954 -73.65581 6532 ft 138 kts 175°
2026-05-05 12:42 41.46041 -73.65225 6545 ft 139 kts 175°
2026-05-05 12:42 41.45104 -73.64860 6543 ft 141 kts 175°
2026-05-05 12:43 41.44158 -73.64489 6541 ft 141 kts 175°
2026-05-05 12:43 41.43212 -73.64118 6548 ft 142 kts 175°
2026-05-05 12:43 41.42258 -73.63743 6540 ft 143 kts 175°
2026-05-05 12:43 41.41307 -73.63368 6533 ft 142 kts 175°
2026-05-05 12:44 41.40370 -73.62996 6529 ft 142 kts 175°
2026-05-05 12:44 41.39431 -73.62623 6524 ft 139 kts 175°
2026-05-05 12:44 41.38498 -73.62254 6539 ft 139 kts 175°
2026-05-05 12:44 41.37564 -73.61889 6554 ft 140 kts 175°
2026-05-05 12:45 41.36638 -73.61528 6551 ft 141 kts 175°
2026-05-05 12:45 41.35694 -73.61160 6545 ft 141 kts 175°
2026-05-05 12:45 41.34750 -73.60790 6545 ft 141 kts 174°
2026-05-05 12:45 41.33809 -73.60419 6543 ft 141 kts 175°
2026-05-05 12:46 41.32869 -73.60050 6542 ft 140 kts 175°
2026-05-05 12:46 41.31939 -73.59682 6527 ft 138 kts 175°
2026-05-05 12:46 41.31020 -73.59318 6537 ft 137 kts 175°
2026-05-05 12:46 41.30113 -73.58963 6550 ft 138 kts 175°
2026-05-05 12:47 41.29188 -73.58614 6546 ft 137 kts 180°
2026-05-05 12:47 41.28298 -73.58681 6549 ft 124 kts 207°
2026-05-05 12:47 41.27616 -73.59314 6547 ft 119 kts 231°
2026-05-05 12:47 41.27200 -73.60249 6547 ft 118 kts 242°
2026-05-05 12:48 41.26832 -73.61225 6548 ft 119 kts 242°
2026-05-05 12:48 41.26462 -73.62208 6541 ft 118 kts 242°
2026-05-05 12:48 41.26092 -73.63189 6541 ft 119 kts 242°
2026-05-05 12:48 41.25722 -73.64166 6540 ft 119 kts 243°
2026-05-05 12:49 41.25348 -73.65147 6535 ft 119 kts 243°
2026-05-05 12:49 41.24977 -73.66121 6539 ft 118 kts 243°
2026-05-05 12:49 41.24730 -73.66768 6544 ft 119 kts 242°
2026-05-05 12:49 41.24356 -73.67749 6532 ft 119 kts 242°
2026-05-05 12:50 41.23985 -73.68721 6527 ft 117 kts 242°
2026-05-05 12:50 41.23618 -73.69685 6527 ft 116 kts 242°
2026-05-05 12:50 41.23251 -73.70646 6537 ft 116 kts 242°
2026-05-05 12:50 41.22886 -73.71602 6541 ft 116 kts 242°
2026-05-05 12:51 41.22519 -73.72560 6541 ft 116 kts 242°
2026-05-05 12:51 41.22156 -73.73509 6534 ft 117 kts 242°
2026-05-05 12:51 41.21793 -73.74467 6540 ft 116 kts 242°
2026-05-05 12:51 41.21426 -73.75423 6530 ft 116 kts 242°
2026-05-05 12:52 41.21078 -73.76335 6528 ft 95 kts 242°
2026-05-05 12:52 41.20816 -73.77030 6545 ft 88 kts 242°
2026-05-05 12:52 41.20510 -73.77829 6554 ft 104 kts 242°
2026-05-05 12:52 41.20169 -73.78712 6527 ft 112 kts 241°
2026-05-05 12:53 41.19808 -73.79656 6513 ft 116 kts 242°
2026-05-05 12:53 41.19439 -73.80622 6499 ft 117 kts 242°
2026-05-05 12:53 41.19074 -73.81576 6494 ft 116 kts 242°
2026-05-05 12:53 41.18709 -73.82534 6502 ft 117 kts 242°
2026-05-05 12:54 41.17969 -73.84469 6508 ft 118 kts 242°
2026-05-05 12:54 41.17595 -73.85443 6509 ft 119 kts 241°
2026-05-05 12:54 41.17219 -73.86423 6507 ft 119 kts 242°
2026-05-05 12:55 41.16845 -73.87396 6506 ft 120 kts 242°
2026-05-05 12:55 41.16465 -73.88385 6495 ft 120 kts 242°
2026-05-05 12:55 41.16087 -73.89370 6489 ft 120 kts 242°
2026-05-05 12:55 41.15710 -73.90351 6491 ft 119 kts 242°
2026-05-05 12:56 41.15334 -73.91331 6490 ft 119 kts 242°
2026-05-05 12:56 41.14958 -73.92308 6490 ft 118 kts 242°
2026-05-05 12:56 41.14580 -73.93290 6498 ft 120 kts 242°
2026-05-05 12:56 41.14202 -73.94270 6493 ft 121 kts 242°
2026-05-05 12:57 41.13821 -73.95261 6491 ft 120 kts 242°
2026-05-05 12:57 41.13440 -73.96253 6496 ft 121 kts 242°
2026-05-05 12:57 41.13059 -73.97241 6488 ft 120 kts 242°
2026-05-05 12:57 41.12666 -73.98216 6485 ft 119 kts 236°
2026-05-05 12:58 41.11999 -73.98855 6483 ft 125 kts 204°
2026-05-05 12:58 41.11137 -73.99076 6489 ft 126 kts 199°
2026-05-05 12:58 41.10333 -73.99290 6494 ft 126 kts 200°
2026-05-05 12:58 41.09470 -73.99528 6496 ft 127 kts 200°
2026-05-05 12:59 41.08602 -73.99767 6494 ft 127 kts 200°
2026-05-05 12:59 41.07719 -74.00011 6257 ft 139 kts 200°
2026-05-05 12:59 41.06705 -74.00300 5490 ft 154 kts 199°
2026-05-05 13:00 41.04571 -74.00865 4086 ft 154 kts 198°
2026-05-05 13:00 41.03566 -74.01120 3772 ft 138 kts 198°
2026-05-05 13:01 41.00999 -74.01810 3547 ft 129 kts 200°
2026-05-05 13:01 41.00101 -74.02060 3517 ft 133 kts 199°
2026-05-05 13:01 40.99206 -74.02302 3505 ft 133 kts 199°
2026-05-05 13:01 40.98220 -74.02577 2910 ft 160 kts 198°
2026-05-05 13:02 40.97078 -74.02894 2204 ft 164 kts 195°
2026-05-05 13:02 40.96006 -74.03171 1582 ft 159 kts 194°
2026-05-05 13:02 40.94916 -74.03464 1270 ft 162 kts 193°
2026-05-05 13:02 40.93811 -74.03758 1136 ft 165 kts 192°
2026-05-05 13:03 40.92693 -74.04057 1056 ft 162 kts 192°
2026-05-05 13:03 40.91601 -74.04346 1018 ft 158 kts 191°
2026-05-05 13:03 40.90530 -74.04631 1006 ft 156 kts 191°
2026-05-05 13:03 40.89465 -74.04913 1001 ft 155 kts 190°
2026-05-05 13:04 40.88539 -74.05077 719 ft 126 kts 181°
2026-05-05 13:04 40.87788 -74.05006 651 ft 96 kts 169°
2026-05-05 13:04 40.87155 -74.04828 455 ft 89 kts 167°
2026-05-05 13:04 40.86584 -74.04695 322 ft 78 kts 173°
2026-05-05 13:05 40.86146 -74.04894 218 ft 61 kts 214°
2026-05-05 13:05 40.85849 -74.05281 79 ft 58 kts 224°
2026-05-05 13:05 40.85596 -74.05659 11 ft 51 kts 224°
2026-05-05 13:05 40.85517 -74.05805 11 ft 5 kts 28°
2026-05-05 13:06 40.85577 -74.05778 11 ft 15 kts 298°
2026-05-05 13:06 40.85599 -74.05817 11 ft 0 kts 302°
2026-05-05 13:06 40.85611 -74.05840 11 ft 9 kts 293°
2026-05-05 13:06 40.85693 -74.05982 11 ft 30 kts 292°
2026-05-05 13:07 40.85710 -74.06046 11 ft 0 kts 58°
2026-05-05 13:07 40.85706 -74.06042 11 ft 6 kts 201°
2026-05-05 13:07 40.85608 -74.06058 11 ft 22 kts 184°
2026-05-05 13:07 40.85451 -74.06109 11 ft 23 kts 232°
2026-05-05 13:08 40.85344 -74.06264 11 ft 22 kts 226°
2026-05-05 13:08 40.85253 -74.06400 11 ft 17 kts 228°
2026-05-05 13:08 40.85299 -74.06469 11 ft 15 kts 351°
2026-05-05 13:08 40.85404 -74.06424 11 ft 18 kts 63°
2026-05-05 13:09 40.85490 -74.06328 11 ft 7 kts 311°
2026-05-05 13:09 40.85522 -74.06328 11 ft 7 kts 338°
2026-05-05 13:09 40.85526 -74.06371 11 ft 0 kts 208°
2026-05-05 13:09 0.01380 0.00001 53808 ft 0 kts